Location: Ashtead
(51.3000°N, 0.3000°W)
Time: 11:37:26
(UTC+00:00)

MSX - Pass Details

Date: 26 September 2023
Orbit: 895 x 904 km, 99.0° (Epoch: 10 December)

Event Time Altitude Azimuth Distance (km) Brightness Sun altitude
Rises 01:48:07 0° 18° (NNE) 3,525 7.9 -34.2°
Reaches altitude 10° 01:50:36 10° 23° (NNE) 2,580 7.0 -34.0°
Enters shadow 01:55:21 50° 67° (ENE) 1,128 4.5 -33.6°
